Regional Weather Roundup
Issued by NWS Sioux Falls, SD

Home | Current Version | Previous Version | Graphics & Text | Print | Product List | Glossary On
Versions: 1 2 3 4 5 6 7 8 9 10 11 12 13 14 15 16 17 18 19 20 21 22 23 24 25 26 27 28 29 30 31 32 33 34 35 36 37 38 39 40 41 42 43 44 45 46 47 48 49 50
000
ASUS43 KFSD 052102
RWRFSD

WEATHER ROUNDUP FOR SE SOUTH DAKOTA/SW MINNESOTA/NW IOWA
NATIONAL WEATHER SERVICE SIOUX FALLS SD
400 PM CDT SUN JUL 05 2015

NOTE: "FAIR" INDICATES FEW OR NO CLOUDS BELOW 12,000 FEET WITH NO
SIGNIFICANT WEATHER AND OR OBSTRUCTIONS TO VISIBILITY.


SDZ038>040-050-052>070-052200-
SOUTHEAST SOUTH DAKOTA

CITY           SKY/WX    TMP DP  RH WIND       PRES   REMARKS
BROOKINGS      MOSUNNY   84  68  58 S9        29.82S
CHAMBERLAIN    NOT AVBL
HURON          MOSUNNY   88  71  57 S9        29.74F
MADISON        FAIR      86  72  62 S12       29.81F
MITCHELL       MOSUNNY   89  72  56 S12       29.76S HX  96
SIOUX FALLS    MOSUNNY   87  70  56 SE15      29.81R
WINNER         FAIR      96  65  35 SE8       29.74F HX  98
YANKTON        MOSUNNY   88  73  62 S14G20    29.76S HX  96
$$

MNZ071-072-080-081-089-090-097-098-052200-
SOUTHWEST MINNESOTA

CITY           SKY/WX    TMP DP  RH WIND       PRES   REMARKS
FAIRMONT       MOSUNNY   84  68  58 S17G23    29.87S
JACKSON        PTSUNNY   88  70  55 S16G24    29.88S
LUVERNE        MOSUNNY   86  66  51 S12       29.84S
MARSHALL       SUNNY     90  66  45 S15G21    29.80
MONTEVIDEO     SUNNY     90  70  51 SW12      29.79S HX  95
PIPESTONE      MOSUNNY   84  66  54 S13       29.84S
REDWOOD FALLS  MOSUNNY   89  69  51 S17       29.81F
TRACY          MOSUNNY   89  68  49 S15G21    29.83F
WINDOM         MOSUNNY   88  70  55 S16G26    29.85F
WORTHINGTON    MOSUNNY   88  70  55 S16G24    29.86S
$$

IAZ001>003-012>014-020>022-031-032-NEZ013-014-SDZ071-052200-
NORTHWEST IOWA

CITY           SKY/WX    TMP DP  RH WIND       PRES   REMARKS
DENISON        MOSUNNY   84  72  65 S18G25    29.84F
ESTHERVILLE    PTSUNNY   84  71  65 S20G28    29.87F
SIOUX CITY     SUNNY     87  73  62 S16G24    29.80F
SPENCER        MOSUNNY   89  69  51 S21G28    29.86S
$$

ABBREVIATIONS USED IN REMARKS
   TC - TEMPERATURE IN CELSIUS
  WCI - WIND CHILL INDEX
   HX - HEAT INDEX
  VSB - VISIBILITY




USA.gov is the U.S. government's official web portal to all federal, state and local government web resources and services.